GW1821 Weather Reports


Display with metric or nautical units.
time (UTC)temp
F
wind
direction
speed
MPH
gust
MPH
rain 1hr
in
rain 24hr
in
rain mn
in
humidity
%
barometer
mb
20260508014423 54 252 0.0 1.0 0.00 0.00 0.00 42 1006.4
20260508013919 55 252 0.0 2.0 0.00 0.00 0.00 40 1006.3
20260508013414 55 252 0.0 2.0 0.00 0.00 0.00 40 1006.3
20260508013144 56 252 0.0 2.0 0.00 0.00 0.00 38 1006.3
20260508012413 56 252 1.0 3.0 0.00 0.00 0.00 39 1006.2
20260508011909 56 252 1.0 3.0 0.00 0.00 0.00 37 1006.3
20260508011408 56 252 1.0 3.0 0.00 0.00 0.00 39 1006.2
20260508010911 57 259 2.0 9.0 0.00 0.00 0.00 36 1006.2
20260508010355 57 260 3.0 9.0 0.00 0.00 0.00 35 1006.2
20260508010341 57 244 4.0 7.0 0.00 0.00 0.00 36 1006.2
20260508005343 57 260 4.0 8.0 0.00 0.00 0.00 36 1006.1
20260508004842 57 254 5.0 9.0 0.00 0.00 0.00 34 1006.1
20260508004341 57 259 5.0 9.0 0.00 0.00 0.00 35 1006.1
20260508003842 58 228 5.0 12.0 0.00 0.00 0.00 34 1006.1
20260508003336 58 226 4.0 12.0 0.00 0.00 0.00 35 1006.1
20260508002833 58 242 3.0 12.0 0.00 0.00 0.00 33 1006.2
20260508002332 58 198 4.0 12.0 0.00 0.00 0.00 34 1006.2
20260508001829 58 285 5.0 12.0 0.00 0.00 0.00 34 1006.2
20260508001329 58 241 4.0 12.0 0.00 0.00 0.00 33 1006.2
20260508001314 58 286 3.0 7.0 0.00 0.00 0.00 33 1006.2
20260508000329 58 240 3.0 8.0 0.00 0.00 0.00 33 1006.2
20260507235819 58 256 3.0 8.0 0.00 0.00 0.00 32 1006.3
20260507235809 58 267 3.0 11.0 0.00 0.00 0.00 32 1006.3
20260507234814 59 281 4.0 11.0 0.00 0.00 0.00 33 1006.3
20260507234311 59 238 3.0 11.0 0.00 0.00 0.00 32 1006.3
20260507233808 59 261 3.0 11.0 0.00 0.00 0.00 31 1006.4
20260507233310 60 270 4.0 11.0 0.00 0.00 0.00 31 1007.3
20260507232808 60 290 4.0 11.0 0.00 0.00 0.00 32 1006.5
20260507232300 59 221 4.0 13.0 0.00 0.00 0.00 31 1006.5
20260507231803 58 250 3.0 13.0 0.00 0.00 0.00 33 1006.5
20260507231301 58 252 4.0 13.0 0.00 0.00 0.00 32 1006.6
20260507230742 59 284 3.0 13.0 0.00 0.00 0.00 31 1006.6
20260507230242 59 289 3.0 8.0 0.00 0.00 0.00 31 1006.6
20260507225740 59 291 3.0 8.0 0.00 0.00 0.00 31 1006.7
20260507225241 58 294 2.0 5.0 0.00 0.00 0.00 33 1006.8
20260507224735 57 318 3.0 8.0 0.00 0.00 0.00 33 1006.8
20260507224230 58 304 3.0 8.0 0.00 0.00 0.00 33 1006.7
20260507223733 59 254 4.0 13.0 0.00 0.00 0.00 31 1006.7
20260507223223 60 290 5.0 13.0 0.00 0.00 0.00 31 1006.7
20260507222722 60 271 4.0 10.0 0.00 0.00 0.00 30 1006.7
20260507222223 60 234 3.0 10.0 0.00 0.00 0.00 33 1006.8
20260507221940 59 336 3.0 9.0 0.00 0.00 0.00 32 1006.8
20260507221215 58 291 4.0 9.0 0.00 0.00 0.00 32 1007.0
20260507220708 58 286 4.0 10.0 0.00 0.00 0.00 30 1007.0
20260507220213 59 314 4.0 10.0 0.00 0.00 0.00 30 1007.0
20260507215646 60 344 5.0 14.0 0.00 0.00 0.00 29 1007.1
20260507215144 59 292 6.0 14.0 0.00 0.00 0.00 32 1007.1
20260507214901 59 232 7.0 21.0 0.00 0.00 0.00 31 1007.0
20260507214143 59 257 5.0 21.0 0.00 0.00 0.00 32 1007.0
20260507213644 59 288 4.0 14.0 0.00 0.00 0.00 29 1007.1
20260507213139 60 248 4.0 14.0 0.00 0.00 0.00 29 1007.1
20260507212633 60 285 4.0 9.0 0.00 0.00 0.00 30 1007.1
20260507212134 59 351 4.0 9.0 0.00 0.00 0.00 32 1007.0
20260507211633 59 274 5.0 12.0 0.00 0.00 0.00 33 1007.1
20260507211106 59 288 5.0 12.0 0.00 0.00 0.00 32 1007.1
20260507210605 58 299 4.0 11.0 0.00 0.00 0.00 34 1007.2
20260507210335 58 296 3.0 10.0 0.00 0.00 0.00 31 1007.2
20260507205605 58 252 6.0 15.0 0.00 0.00 0.00 31 1007.3
20260507205100 58 277 7.0 16.0 0.00 0.00 0.00 30 1007.4
20260507205042 58 246 5.0 16.0 0.00 0.00 0.00 30 1007.4
20260507204057 59 310 4.0 13.0 0.00 0.00 0.00 31 1007.4
20260507203555 59 269 4.0 9.0 0.00 0.00 0.00 33 1007.7
20260507203052 59 166 4.0 9.0 0.00 0.00 0.00 33 1007.7
20260507202550 59 265 4.0 11.0 0.00 0.00 0.00 31 1007.7
20260507202046 58 219 5.0 11.0 0.00 0.00 0.00 37 1007.7
20260507201546 58 291 5.0 11.0 0.00 0.00 0.00 34 1007.8
20260507201036 58 296 3.0 9.0 0.00 0.00 0.00 33 1007.9
20260507200803 57 298 4.0 12.0 0.00 0.00 0.00 32 1007.9
20260507200034 57 344 4.0 12.0 0.00 0.00 0.00 32 1008.0
20260507195532 58 355 5.0 14.0 0.00 0.00 0.00 31 1008.0
20260507195028 57 273 5.0 14.0 0.00 0.00 0.00 32 1008.1
20260507194529 58 298 5.0 13.0 0.00 0.00 0.00 31 1008.2
20260507194251 58 184 5.0 14.0 0.00 0.00 0.00 32 1008.2
20260507193520 57 293 3.0 14.0 0.00 0.00 0.00 34 1008.1
20260507193021 57 5 4.0 14.0 0.00 0.00 0.00 33 1008.2
20260507192522 57 202 5.0 14.0 0.00 0.00 0.00 31 1008.3
20260507192019 56 252 3.0 12.0 0.00 0.00 0.00 35 1008.3
20260507191519 56 261 3.0 9.0 0.00 0.00 0.00 36 1008.3
20260507191019 56 194 4.0 14.0 0.00 0.00 0.00 32 1008.3
20260507190511 56 222 4.0 14.0 0.00 0.00 0.00 36 1008.4
20260507190012 56 196 4.0 14.0 0.00 0.00 0.00 31 1008.3
20260507185733 56 290 4.0 14.0 0.00 0.00 0.00 34 1008.4
20260507185009 56 182 4.0 13.0 0.00 0.00 0.00 34 1008.4
20260507184508 56 331 5.0 13.0 0.00 0.00 0.00 35 1008.5
20260507184004 56 286 4.0 12.0 0.00 0.00 0.00 34 1008.4
20260507183741 56 290 3.0 10.0 0.00 0.00 0.00 34 1008.5
20260507182956 56 323 3.0 10.0 0.00 0.00 0.00 36 1008.7
20260507182453 56 32 2.0 8.0 0.00 0.00 0.00 33 1008.6
20260507181948 55 286 2.0 9.0 0.00 0.00 0.00 34 1008.6
20260507181444 55 311 3.0 9.0 0.00 0.00 0.00 33 1008.7
20260507180945 54 327 3.0 12.0 0.00 0.00 0.00 36 1008.7
20260507180436 54 53 4.0 12.0 0.00 0.00 0.00 35 1008.8
20260507175929 55 309 4.0 12.0 0.00 0.00 0.00 35 1008.8
20260507175416 55 284 4.0 10.0 0.00 0.00 0.00 40 1009.0
20260507174917 54 229 3.0 9.0 0.00 0.00 0.00 40 1009.0
20260507174408 54 234 3.0 9.0 0.00 0.00 0.00 43 1009.0
20260507173908 54 5 4.0 12.0 0.00 0.00 0.00 36 1009.0
20260507173409 53 286 5.0 12.0 0.00 0.00 0.00 35 1009.2
20260507172907 53 256 4.0 9.0 0.00 0.00 0.00 39 1009.2
20260507172843 53 231 2.0 9.0 0.00 0.00 0.00 39 1009.2
20260507171854 52 336 3.0 9.0 0.00 0.00 0.00 38 1009.3
20260507171350 52 241 3.0 9.0 0.00 0.00 0.00 39 1009.3
20260507170842 52 250 3.0 8.0 0.00 0.00 0.00 38 1009.4
20260507170341 52 335 4.0 11.0 0.00 0.00 0.00 43 1009.4
20260507165836 52 93 4.0 11.0 0.00 0.00 0.00 44 1009.7
20260507165333 51 26 3.0 8.0 0.00 0.00 0.00 40 1009.6
20260507164833 51 173 3.0 8.0 0.00 0.00 0.00 38 1009.5
20260507164330 51 288 3.0 8.0 0.00 0.00 0.00 42 1009.7
20260507163832 51 32 3.0 9.0 0.00 0.00 0.00 38 1009.7
20260507163557 51 314 3.0 9.0 0.00 0.00 0.00 44 1009.8
20260507162822 50 195 4.0 10.0 0.00 0.00 0.00 40 1009.8
20260507162803 50 229 3.0 10.0 0.00 0.00 0.00 42 1009.8
20260507161823 51 315 2.0 8.0 0.00 0.00 0.00 40 1009.9
20260507161324 51 49 3.0 8.0 0.00 0.00 0.00 43 1009.9
20260507161039 50 331 2.0 8.0 0.00 0.00 0.00 43 1010.0
20260507160318 50 213 2.0 8.0 0.00 0.00 0.00 43 1010.0
20260507155818 50 355 3.0 12.0 0.00 0.00 0.00 43 1010.0
20260507155313 49 321 3.0 12.0 0.00 0.00 0.00 48 1010.0
20260507154815 49 235 2.0 8.0 0.00 0.00 0.00 45 1010.0
20260507154309 49 169 4.0 11.0 0.00 0.00 0.00 45 1010.1
20260507153807 49 234 4.0 11.0 0.00 0.00 0.00 45 1010.1
20260507153306 48 280 2.0 10.0 0.00 0.00 0.00 49 1010.0
20260507152802 48 34 4.0 11.0 0.00 0.00 0.00 46 1010.0
20260507152301 48 238 5.0 11.0 0.00 0.00 0.00 48 1010.0
20260507151758 47 293 4.0 9.0 0.00 0.00 0.00 47 1010.0
20260507151257 47 241 4.0 9.0 0.00 0.00 0.00 47 1010.1
20260507150753 47 244 2.0 9.0 0.00 0.00 0.00 48 1010.1
20260507150256 47 239 1.0 4.0 0.00 0.00 0.00 49 1010.1
20260507145755 47 239 2.0 10.0 0.00 0.00 0.00 50 1010.2
20260507145254 46 263 2.0 10.0 0.00 0.00 0.00 52 1010.2
20260507144751 46 223 2.0 7.0 0.00 0.00 0.00 52 1010.2
20260507144523 46 14 1.0 5.0 0.00 0.00 0.00 53 1010.3
20260507144239 45 315 1.0 5.0 0.00 0.00 0.00 52 1010.3
20260507143250 45 277 2.0 7.0 0.00 0.00 0.00 53 1010.3
20260507142743 44 279 2.0 7.0 0.00 0.00 0.00 53 1010.3
20260507142243 44 227 3.0 7.0 0.00 0.00 0.00 56 1010.3
20260507141742 44 240 2.0 7.0 0.00 0.00 0.00 56 1010.3
20260507141501 44 317 2.0 5.0 0.00 0.00 0.00 58 1010.3
20260507140955 43 285 2.0 5.0 0.00 0.00 0.00 60 1010.4
20260507140233 43 284 3.0 8.0 0.00 0.00 0.00 60 1010.4
20260507135728 43 244 3.0 8.0 0.00 0.00 0.00 63 1010.4
20260507135444 42 234 2.0 8.0 0.00 0.00 0.00 65 1010.5
20260507134723 42 243 1.0 8.0 0.00 0.00 0.00 67 1010.5
20260507134224 41 248 2.0 8.0 0.00 0.00 0.00 69 1010.4
20260507133719 41 249 3.0 8.0 0.00 0.00 0.00 70 1010.5
20260507133440 40 266 2.0 7.0 0.00 0.00 0.00 72 1010.5
20260507132657 40 239 2.0 5.0 0.00 0.00 0.00 74 1010.5
20260507132146 39 226 2.0 5.0 0.00 0.00 0.00 75 1010.6
20260507131635 38 234 3.0 6.0 0.00 0.00 0.00 78 1010.5
20260507131122 37 245 2.0 6.0 0.00 0.00 0.00 80 1010.5
20260507130614 36 246 1.0 5.0 0.00 0.00 0.00 82 1010.6
20260507130112 35 246 1.0 5.0 0.00 0.00 0.00 83 1010.5
20260507125604 35 242 1.0 4.0 0.00 0.00 0.00 85 1010.6
20260507125100 34 271 1.0 3.0 0.00 0.00 0.00 85 1010.7
20260507124600 33 271 1.0 3.0 0.00 0.00 0.00 86 1010.7
20260507124055 33 271 1.0 3.0 0.00 0.00 0.00 86 1010.7
20260507123557 33 271 0.0 2.0 0.00 0.00 0.00 87 1010.6
20260507123050 32 271 0.0 2.0 0.00 0.00 0.00 87 1010.6
20260507122553 32 271 0.0 0.0 0.00 0.00 0.00 87 1010.6
20260507122047 31 271 0.0 0.0 0.00 0.00 0.00 87 1010.6
20260507121530 31 271 0.0 0.0 0.00 0.00 0.00 87 1010.6
20260507121025 31 271 0.0 0.0 0.00 0.00 0.00 87 1010.6
20260507120512 31 271 0.0 0.0 0.00 0.00 0.00 86 1010.6
20260507120011 30 271 0.0 0.0 0.00 0.00 0.00 86 1010.6
20260507115511 30 271 0.0 0.0 0.00 0.00 0.00 86 1010.6
20260507115006 30 271 0.0 0.0 0.00 0.00 0.00 86 1010.6
20260507114504 30 271 0.0 0.0 0.00 0.00 0.00 86 1010.7
20260507114003 30 271 0.0 0.0 0.00 0.00 0.00 86 1010.6
20260507113502 30 271 0.0 0.0 0.00 0.00 0.00 85 1010.5
20260507113433 30 271 0.0 0.0 0.00 0.00 0.00 85 1010.5
20260507112448 30 271 0.0 0.0 0.00 0.00 0.00 85 1010.6
20260507112151 30 271 0.0 0.0 0.00 0.00 0.00 85 1010.6
20260507111424 30 271 0.0 0.0 0.00 0.00 0.00 85 1010.6
20260507110922 31 271 0.0 0.0 0.00 0.00 0.00 84 1010.6
20260507110414 31 271 0.0 0.0 0.00 0.00 0.00 84 1010.7
20260507105912 31 271 0.0 0.0 0.00 0.00 0.00 84 1010.7
20260507105410 31 271 0.0 0.0 0.00 0.00 0.00 84 1010.8
20260507104908 31 271 0.0 2.0 0.00 0.00 0.00 84 1010.7
20260507104404 31 271 0.0 4.0 0.00 0.00 0.00 84 1010.6
20260507104109 31 271 0.0 4.0 0.00 0.00 0.00 83 1010.7
20260507103832 32 271 1.0 4.0 0.00 0.00 0.00 84 1010.6
20260507102832 32 271 1.0 4.0 0.00 0.00 0.00 84 1010.6
20260507102323 32 260 0.0 2.0 0.00 0.00 0.00 84 1010.7
20260507102040 32 252 0.0 0.0 0.00 0.00 0.00 84 1010.6
20260507101309 32 252 0.0 1.0 0.00 0.00 0.00 84 1010.6
20260507100807 32 252 0.0 1.0 0.00 0.00 0.00 84 1010.6
20260507100308 32 252 0.0 0.0 0.00 0.00 0.00 84 1010.6
20260507095805 32 252 0.0 1.0 0.00 0.00 0.00 84 1010.5
20260507095308 32 252 0.0 1.0 0.00 0.00 0.00 84 1010.6
20260507094748 32 252 0.0 0.0 0.00 0.00 0.00 84 1010.6
20260507094732 32 252 0.0 0.0 0.00 0.00 0.00 84 1010.6
20260507093718 32 252 0.0 0.0 0.00 0.00 0.00 83 1010.6
20260507093211 32 252 0.0 0.0 0.00 0.00 0.00 84 1010.6
20260507092710 32 252 0.0 0.0 0.00 0.00 0.00 84 1010.7
20260507092200 31 252 0.0 0.0 0.00 0.00 0.00 83 1010.6
20260507091657 31 252 0.0 0.0 0.00 0.00 0.00 83 1010.7
20260507091136 31 252 0.0 0.0 0.00 0.00 0.00 83 1010.7
20260507090622 31 252 0.0 0.0 0.00 0.00 0.00 83 1010.7
20260507090104 31 252 0.0 0.0 0.00 0.00 0.00 83 1010.7
20260507085546 31 252 0.0 0.0 0.00 0.00 0.00 82 1010.7
20260507085311 31 252 0.0 1.0 0.00 0.00 0.00 82 1010.6
20260507084544 31 252 0.0 1.0 0.00 0.00 0.00 82 1010.6
20260507084033 31 252 0.0 1.0 0.00 0.00 0.00 81 1010.6
20260507083800 32 252 0.0 1.0 0.00 0.00 0.00 81 1010.6
20260507083022 32 252 0.0 1.0 0.00 0.00 0.00 81 1010.6
20260507082735 32 252 0.0 2.0 0.00 0.00 0.00 81 1010.6
20260507082003 32 252 1.0 3.0 0.00 0.00 0.00 81 1010.6
20260507081502 32 252 1.0 3.0 0.00 0.00 0.00 81 1010.7
20260507081001 31 252 0.0 3.0 0.00 0.00 0.00 81 1010.7
20260507080454 32 252 0.0 1.0 0.00 0.00 0.00 80 1010.7
20260507075937 32 253 0.0 1.0 0.00 0.00 0.00 80 1010.6
20260507075921 32 253 0.0 1.0 0.00 0.00 0.00 79 1010.6
20260507074915 32 253 0.0 1.0 0.00 0.00 0.00 79 1010.6
20260507074414 32 253 0.0 0.0 0.00 0.00 0.00 79 1010.6
20260507073912 32 253 0.0 0.0 0.00 0.00 0.00 78 1010.6
20260507073345 32 253 0.0 0.0 0.00 0.00 0.00 78 1010.6
20260507072842 33 253 0.0 0.0 0.00 0.00 0.00 78 1010.7
20260507072335 33 253 0.0 0.0 0.00 0.00 0.00 78 1010.7
20260507071835 33 253 0.0 0.0 0.00 0.00 0.00 77 1010.9
20260507071306 33 253 0.0 0.0 0.00 0.00 0.00 77 1011.0
20260507070803 33 253 0.0 0.0 0.00 0.00 0.00 77 1011.0
20260507070255 34 253 0.0 0.0 0.00 0.00 0.00 76 1011.1
20260507065743 34 253 0.0 0.0 0.00 0.00 0.00 76 1011.2
20260507065228 34 253 0.0 0.0 0.00 0.00 0.00 76 1011.2
20260507064721 35 253 0.0 0.0 0.00 0.00 0.00 75 1011.2
20260507064154 35 253 0.0 0.0 0.00 0.00 0.00 75 1011.2
20260507063647 35 253 0.0 0.0 0.00 0.00 0.00 74 1011.2
20260507063138 35 253 0.0 0.0 0.00 0.00 0.00 74 1011.3
20260507062903 36 253 0.0 0.0 0.00 0.00 0.00 73 1011.3
20260507062132 36 253 0.0 0.0 0.00 0.00 0.00 73 1011.3
20260507061622 36 253 0.0 0.0 0.00 0.00 0.00 72 1011.5
20260507061339 37 253 0.0 0.0 0.00 0.00 0.00 72 1011.3
20260507060605 37 253 0.0 0.0 0.00 0.00 0.00 71 1011.5
20260507060055 37 253 0.0 0.0 0.00 0.00 0.00 71 1011.5
20260507055551 37 253 0.0 0.0 0.00 0.00 0.00 70 1011.5
20260507055049 38 253 0.0 0.0 0.00 0.00 0.00 70 1011.6
20260507054545 38 253 0.0 1.0 0.00 0.00 0.00 69 1011.7
20260507054036 38 253 0.0 2.0 0.00 0.00 0.00 68 1011.7
20260507053526 39 253 0.0 2.0 0.00 0.00 0.00 68 1011.7
20260507053019 40 253 0.0 0.0 0.00 0.00 0.00 67 1011.7
20260507052455 40 253 0.0 0.0 0.00 0.00 0.00 65 1011.7
20260507052212 40 253 0.0 0.0 0.00 0.00 0.00 65 1011.7
20260507051631 40 253 0.0 0.0 0.00 0.00 0.00 64 1011.7
20260507050912 40 253 0.0 2.0 0.00 0.00 0.00 65 1011.7
20260507050346 41 253 0.0 2.0 0.00 0.00 0.00 63 1011.8
20260507045846 41 253 0.0 2.0 0.00 0.00 0.00 63 1011.9
20260507045341 41 253 0.0 2.0 0.00 0.00 0.00 63 1011.9
20260507045048 41 253 1.0 2.0 0.00 0.00 0.00 64 1011.9
20260507044322 41 253 1.0 2.0 0.00 0.00 0.00 64 1011.9
20260507043821 41 253 1.0 2.0 0.00 0.00 0.00 65 1011.9
20260507043312 41 253 0.0 2.0 0.00 0.00 0.00 62 1011.9
20260507042813 41 253 0.0 1.0 0.00 0.00 0.00 63 1012.0
20260507042313 41 253 0.0 1.0 0.00 0.00 0.00 63 1011.9
20260507041806 41 253 0.0 2.0 0.00 0.00 0.00 63 1012.0
20260507041257 41 253 0.0 2.0 0.00 0.00 0.00 62 1012.1
20260507041230 41 253 1.0 2.0 0.00 0.00 0.00 60 1012.1
20260507040237 41 253 1.0 2.0 0.00 0.00 0.00 61 1012.1
20260507035732 41 253 1.0 2.0 0.00 0.00 0.00 61 1012.1
20260507035224 41 253 0.0 2.0 0.00 0.00 0.00 61 1012.2
20260507034722 41 253 1.0 3.0 0.00 0.00 0.00 60 1012.1
20260507034441 41 253 1.0 3.0 0.00 0.00 0.00 60 1012.2
20260507033720 42 253 1.0 3.0 0.00 0.00 0.00 61 1012.2
20260507033220 42 253 1.0 3.0 0.00 0.00 0.00 61 1012.2
20260507032709 42 253 1.0 2.0 0.00 0.00 0.00 60 1012.2
20260507032208 42 253 1.0 2.0 0.00 0.00 0.00 61 1012.2
20260507031709 42 253 1.0 2.0 0.00 0.00 0.00 59 1012.2
20260507031155 43 253 0.0 2.0 0.00 0.00 0.00 59 1012.2
20260507030647 43 253 0.0 2.0 0.00 0.00 0.00 58 1012.2
20260507030411 43 253 0.0 1.0 0.00 0.00 0.00 58 1012.3
20260507025633 43 253 1.0 3.0 0.00 0.00 0.00 57 1012.2
20260507025131 43 253 1.0 4.0 0.00 0.00 0.00 56 1012.3
20260507024633 43 253 1.0 4.0 0.00 0.00 0.00 56 1012.4
20260507024117 43 255 1.0 4.0 0.00 0.00 0.00 56 1012.3
20260507023612 44 255 0.0 3.0 0.00 0.00 0.00 56 1012.3
20260507023329 44 255 0.0 1.0 0.00 0.00 0.00 55 1012.3
20260507022611 44 255 0.0 2.0 0.00 0.00 0.00 54 1012.3
20260507022112 44 255 0.0 2.0 0.00 0.00 0.00 54 1012.4
20260507021605 44 255 0.0 4.0 0.00 0.00 0.00 54 1012.4
20260507021110 44 255 1.0 4.0 0.00 0.00 0.00 54 1012.4
20260507020827 44 255 1.0 4.0 0.00 0.00 0.00 54 1012.4
20260507020059 44 255 1.0 4.0 0.00 0.00 0.00 53 1012.3
20260507015559 44 256 1.0 3.0 0.00 0.00 0.00 53 1012.3
20260507015056 44 255 2.0 5.0 0.00 0.00 0.00 53 1012.2